Change the Weather History Date:

Wednesday, June 26, 2013

  Actual Average Record
Temperature  
Mean Temperature 81 °F -  
Max Temperature 89 °F 88 °F 93 °F (2000)
Min Temperature 73 °F 75 °F 69 °F (2008)
Cooling Degree Days 16    
Growing Degree Days 31 (Base 50)    
Moisture  
Dew Point 75 °F    
Average Humidity 81    
Maximum Humidity 94    
Minimum Humidity 62    
Precipitation  
Precipitation 0.00 in - - ()
Sea Level Pressure  
Sea Level Pressure 29.99 in    
Wind  
Wind Speed 4 mph ()    
Max Wind Speed 10 mph    
Max Gust Speed -    
Visibility 7.0 miles    
Events      
Averages and records for this station are not official NWS values.
T = Trace of Precipitation, MM = Missing Value Source: Averaged Metar Reports

Daily Weather History Graph

Daily Weather History Graph

Search for Another Location

Airport or City:

Trip Planner

Search our weather history database for the weather conditions in past years. The results will help you decide how hot, cold, wet, or windy it might be!

Date:

Astronomy

Jun. 26, 2013 Rise Set
Actual Time 6:08 AM CDT 7:32 PM CDT
Civil Twilight 5:43 AM CDT 7:57 PM CDT
Nautical Twilight 5:13 AM CDT 8:26 PM CDT
Astronomical Twilight 4:43 AM CDT 8:57 PM CDT
Moon 10:28 PM CDT (6/26) 9:31 AM CDT (6/26)
Length of Visible Light 14h 13m
Length of Day
13h 24m
Waning Gibbous, 85% of the Moon is Illuminated
Jun 26
Waning Gibbous
Jun 29
Last Quarter
Jul 8
New
Jul 15
First Quarter
Jul 22
Full

Hourly Weather History & Observations

Time (CDT) Temp. Heat Index Dew Point Humidity Pressure Visibility Wind Dir Wind Speed Gust Speed Precip Events Conditions
12:40 AM 80.6 °F 86.2 °F 75.2 °F 84% 30.03 in 7.0 mi ESE 4.6 mph - N/A   Scattered Clouds
1:41 AM 77.0 °F - 73.4 °F 89% 30.00 in 7.0 mi WNW 3.5 mph - N/A   Scattered Clouds
2:41 AM 77.0 °F - 73.4 °F 89% 29.98 in 7.0 mi Calm Calm - N/A   Scattered Clouds
3:47 AM 75.2 °F - 73.4 °F 94% 29.97 in 7.0 mi NW 2.3 mph - N/A   Scattered Clouds
4:42 AM 73.4 °F - 71.6 °F 94% 29.96 in 7.0 mi WNW 3.5 mph - N/A   Mostly Cloudy
5:42 AM 73.4 °F - 71.6 °F 94% 29.97 in 7.0 mi Calm Calm - N/A   Mostly Cloudy
6:41 AM 73.4 °F - 71.6 °F 94% 29.99 in 7.0 mi Calm Calm - N/A   Mostly Cloudy
7:42 AM 78.8 °F - 75.2 °F 89% 29.99 in 7.0 mi Calm Calm - N/A   Mostly Cloudy
8:45 AM 84.2 °F 92.3 °F 75.2 °F 74% 30.01 in 7.0 mi ENE 6.9 mph - N/A   Mostly Cloudy
9:49 AM 84.2 °F 92.3 °F 75.2 °F 74% 30.02 in 7.0 mi East 8.1 mph - N/A   Scattered Clouds
10:44 AM 86.0 °F 96.9 °F 77.0 °F 74% 30.02 in 7.0 mi ESE 10.4 mph - N/A   Mostly Cloudy
11:46 AM 86.0 °F 95.1 °F 75.2 °F 70% 30.02 in 7.0 mi ENE 6.9 mph - N/A   Mostly Cloudy
12:44 PM 87.8 °F 97.6 °F 75.2 °F 66% 30.02 in 7.0 mi ESE 8.1 mph - N/A   Mostly Cloudy
1:42 PM 87.8 °F 97.6 °F 75.2 °F 66% 30.01 in 7.0 mi East 6.9 mph - N/A   Mostly Cloudy
2:42 PM 89.6 °F 99.8 °F 75.2 °F 62% 29.99 in 7.0 mi East 8.1 mph - N/A   Mostly Cloudy
3:47 PM 86.0 °F 93.4 °F 73.4 °F 66% 29.98 in 7.0 mi East 9.2 mph - N/A   Mostly Cloudy
4:40 PM 84.2 °F 92.3 °F 75.2 °F 74% 29.98 in 7.0 mi East 6.9 mph - N/A   Mostly Cloudy
5:44 PM 84.2 °F 92.3 °F 75.2 °F 74% 29.99 in 7.0 mi East 4.6 mph - N/A   Mostly Cloudy
6:40 PM 84.2 °F 92.3 °F 75.2 °F 74% 30.00 in 7.0 mi ENE 5.8 mph - N/A   Mostly Cloudy
7:41 PM 82.4 °F 90.9 °F 77.0 °F 84% 29.96 in 7.0 mi ENE 3.5 mph - N/A   Mostly Cloudy
8:44 PM 80.6 °F 86.2 °F 75.2 °F 84% 29.97 in 7.0 mi East 3.5 mph - N/A   Mostly Cloudy
9:48 PM 80.6 °F 87.1 °F 77.0 °F 89% 29.95 in 7.0 mi ENE 5.8 mph - N/A   Mostly Cloudy
10:47 PM 80.6 °F 87.1 °F 77.0 °F 89% 30.02 in 7.0 mi East 5.8 mph - N/A   Mostly Cloudy
11:46 PM 78.8 °F - 77.0 °F 94% 30.02 in 7.0 mi Calm Calm - N/A   Mostly Cloudy